Date String (YYYY-MM-DD hh:mm:ss) UTC,Instrument flags,absolute air pressure of the measurement (hPa),sample flow rate (lpm),inlet stack bypass flow (lpm),air temperature of the measurement (°C),ambient temperature measured by the external sensor (°C),aerosol sample conditioner tube jacket temperature (°C),OPC LED temperature (°C),internal box temperature (°C),relative humidity of the measurement (%),span deviation,mass concentration of particles derived from Lorenz-Mie calculation of OPC scattering (μg/m³),mass concentration of particles derived from Lorenz-Mie calculation of OPC scattering (μg/m³),mass concentration of particles derived from Lorenz-Mie calculation of OPC scattering (μg/m³)
DateTimeUTC,F1_M11,P_M11,Q1_M11,Q2_M11,T1_M11,T2_M11,T3_M11,T4_M11,T5_M11,U1_M11,ZSPAN_M11,X0_M11,X2_M11,X1_M11
2023-11-14 12:00:00,SystemResetWarning,0830.5,5.00,000.00,026.4,025.2,000.0,034.8,027.7,4.3,0000.0,0002.84,0001.44,0001.15
2023-11-14 12:01:00,SystemResetWarning,0830.4,5.00,000.00,026.4,025.2,000.0,034.8,027.7,4.2,0000.0,0002.75,0001.41,0001.14
2023-11-14 12:02:00,SystemResetWarning,0830.7,5.01,000.00,026.4,025.2,000.0,034.8,027.7,4.0,0000.0,0002.83,0001.41,0001.13
2023-11-14 12:03:00,SystemResetWarning,0830.5,5.00,000.00,026.4,025.2,000.0,034.8,027.7,4.1,0000.0,0002.85,0001.37,0001.12
2023-11-14 12:04:00,SystemResetWarning,0830.5,4.99,000.00,026.3,025.2,000.0,034.8,027.6,4.2,0000.0,0002.82,0001.36,0001.12
2023-11-14 12:05:00,SystemResetWarning,0830.6,4.99,000.00,026.3,025.2,000.0,034.8,027.7,4.2,0000.0,0002.86,0001.38,0001.10
2023-11-14 12:06:00,SystemResetWarning,0830.6,4.99,000.00,026.3,025.2,000.0,034.8,027.7,4.2,0000.0,0002.79,0001.35,0001.08
2023-11-14 12:07:00,SystemResetWarning,0830.6,5.01,000.00,026.3,025.2,000.0,034.8,027.7,4.3,0000.0,0002.27,0001.33,0001.07
2023-11-14 12:08:00,SystemResetWarning,0830.6,5.01,000.00,026.3,025.2,000.0,034.8,027.7,4.3,0000.0,0002.29,0001.31,0001.04
2023-11-14 12:09:00,SystemResetWarning,0830.6,4.99,000.00,026.3,025.2,000.0,034.7,027.7,4.4,0000.0,0002.30,0001.30,0001.01
2023-11-14 12:10:00,SystemResetWarning,0830.7,4.99,000.00,026.3,025.2,000.0,034.7,027.7,4.3,0000.0,0003.08,0001.31,0000.99
2023-11-14 12:11:00,SystemResetWarning,0830.7,5.00,000.00,026.3,025.1,000.0,034.7,027.7,4.3,0000.0,0003.54,0001.31,0000.98
2023-11-14 12:12:00,SystemResetWarning,0830.6,5.01,000.00,026.3,025.1,000.0,034.7,027.7,4.4,0000.0,0003.50,0001.29,0000.97
2023-11-14 12:13:00,SystemResetWarning,0830.6,5.01,000.00,026.3,025.1,000.0,034.7,027.7,4.2,0000.0,0003.27,0001.25,0000.96
2023-11-14 12:14:00,SystemResetWarning,0830.6,5.00,000.00,026.3,025.1,000.0,034.7,027.7,4.2,0000.0,0003.31,0001.26,0000.96
2023-11-14 12:15:00,SystemResetWarning,0830.6,4.99,000.00,026.3,025.1,000.0,034.7,027.7,4.3,0000.0,0004.05,0001.25,0000.95
2023-11-14 12:16:00,SystemResetWarning,0830.6,4.99,000.00,026.3,025.1,000.0,034.7,027.7,4.3,0000.0,0004.37,0001.20,0000.95
2023-11-14 12:17:00,SystemResetWarning,0830.7,5.01,000.00,026.3,025.1,000.0,034.7,027.6,4.3,0000.0,0004.21,0001.17,0000.94
2023-11-14 12:18:00,SystemResetWarning,0830.7,5.01,000.00,026.2,025.1,000.0,034.7,027.6,4.3,0000.0,0004.16,0001.15,0000.93
2023-11-14 12:19:00,SystemResetWarning,0830.7,5.01,000.00,026.2,025.1,000.0,034.7,027.6,4.4,0000.0,0004.08,0001.16,0000.95
2023-11-14 12:20:00,SystemResetWarning,0830.7,4.99,000.00,026.2,025.0,000.0,034.7,027.6,4.4,0000.0,0004.09,0001.17,0000.96
2023-11-14 12:21:00,SystemResetWarning,0830.7,4.99,000.00,026.2,025.0,000.0,034.7,027.6,4.3,0000.0,0003.53,0001.17,0000.98
2023-11-14 12:22:00,SystemResetWarning,0830.8,4.99,000.00,026.2,025.0,000.0,034.7,027.6,4.3,0000.0,0003.56,0001.17,0000.98
2023-11-14 12:23:00,SystemResetWarning,0830.8,5.00,000.00,026.2,025.1,000.0,034.7,027.6,4.3,0000.0,0003.55,0001.17,0000.99
2023-11-14 12:24:00,SystemResetWarning,0830.8,5.01,000.00,026.2,025.1,000.0,034.6,027.6,4.3,0000.0,0003.59,0001.18,0000.99
2023-11-14 12:25:00,SystemResetWarning,0830.8,5.01,000.00,026.2,025.1,000.0,034.6,027.6,4.4,0000.0,0003.47,0001.18,0000.99
2023-11-14 12:26:00,SystemResetWarning,0830.8,5.01,000.00,026.2,025.1,000.0,034.6,027.6,4.4,0000.0,0002.57,0001.16,0000.99
2023-11-14 12:27:00,SystemResetWarning,0830.8,5.00,000.00,026.2,025.1,000.0,034.6,027.6,4.4,0000.0,0002.13,0001.15,0001.00
2023-11-14 12:28:00,SystemResetWarning,0830.8,4.99,000.00,026.2,025.1,000.0,034.6,027.6,4.4,0000.0,0002.14,0001.16,0001.00
2023-11-14 12:29:00,SystemResetWarning,0830.7,4.99,000.00,026.2,025.1,000.0,034.6,027.6,4.5,0000.0,0002.20,0001.18,0001.01
2023-11-14 12:30:00,SystemResetWarning,0830.8,5.00,000.00,026.2,025.1,000.0,034.6,027.5,4.4,0000.0,0002.18,0001.17,0001.02
2023-11-14 12:31:00,SystemResetWarning,0830.9,5.00,000.00,026.2,025.1,000.0,034.6,027.5,4.5,0000.0,0002.16,0001.17,0001.02
2023-11-14 12:32:00,SystemResetWarning,0830.9,5.01,000.00,026.2,025.1,000.0,034.6,027.6,4.7,0000.0,0002.04,0001.17,0001.03
2023-11-14 12:33:00,SystemResetWarning,0830.9,4.99,000.00,026.2,025.1,000.0,034.6,027.6,4.8,0000.0,0001.55,0001.19,0001.04
2023-11-14 12:34:00,SystemResetWarning,0830.9,4.99,000.00,026.2,025.1,000.0,034.6,027.5,4.8,0000.0,0001.55,0001.19,0001.04
2023-11-14 12:35:00,SystemResetWarning,0830.9,4.99,000.00,026.2,025.1,000.0,034.6,027.6,4.7,0000.0,0001.64,0001.19,0001.04
2023-11-14 12:36:00,SystemResetWarning,0830.9,5.00,000.00,026.2,025.1,000.0,034.6,027.6,4.6,0000.0,0001.70,0001.19,0001.05
2023-11-14 12:37:00,SystemResetWarning,0830.9,5.00,000.00,026.2,025.1,000.0,034.6,027.6,4.6,0000.0,0001.85,0001.22,0001.06
2023-11-14 12:38:00,SystemResetWarning,0830.9,5.00,000.00,026.2,025.1,000.0,034.6,027.6,4.6,0000.0,0002.04,0001.27,0001.07
2023-11-14 12:39:00,SystemResetWarning,0830.8,5.01,000.00,026.2,025.1,000.0,034.6,027.6,4.6,0000.0,0002.28,0001.32,0001.09
2023-11-14 12:40:00,SystemResetWarning,0830.9,5.01,000.00,026.2,025.1,000.0,034.6,027.6,4.6,0000.0,0002.34,0001.33,0001.10
2023-11-14 12:41:00,SystemResetWarning,0830.9,5.00,000.00,026.2,025.1,000.0,034.6,027.6,4.6,0000.0,0002.34,0001.33,0001.10
2023-11-14 12:42:00,SystemResetWarning,0831.0,5.00,000.00,026.2,025.1,000.0,034.6,027.6,4.6,0000.0,0002.35,0001.34,0001.11
2023-11-14 12:43:00,SystemResetWarning,0831.0,4.99,000.00,026.2,025.1,000.0,034.6,027.7,4.6,0000.0,0002.34,0001.34,0001.11
2023-11-14 12:44:00,SystemResetWarning,0831.1,4.99,000.00,026.2,025.1,000.0,034.6,027.6,4.7,0000.0,0002.32,0001.33,0001.11
2023-11-14 12:45:00,SystemResetWarning,0831.2,5.01,000.00,026.2,025.1,000.0,034.6,027.6,4.7,0000.0,0002.44,0001.37,0001.12
2023-11-14 12:46:00,SystemResetWarning,0831.1,5.01,000.00,026.2,025.1,000.0,034.6,027.6,4.6,0000.0,0002.52,0001.40,0001.14
2023-11-14 12:47:00,SystemResetWarning,0831.2,5.01,000.00,026.2,025.1,000.0,034.6,027.6,4.6,0000.0,0002.52,0001.41,0001.16
2023-11-14 12:48:00,SystemResetWarning,0831.1,4.99,000.00,026.2,025.1,000.0,034.6,027.6,4.7,0000.0,0002.39,0001.40,0001.17
2023-11-14 12:49:00,SystemResetWarning,0831.0,5.00,000.00,026.2,025.1,000.0,034.6,027.6,4.6,0000.0,0002.31,0001.41,0001.17
2023-11-14 12:50:00,SystemResetWarning,0830.9,4.99,000.00,026.2,025.1,000.0,034.6,027.6,4.5,0000.0,0002.13,0001.38,0001.16
2023-11-14 12:51:00,SystemResetWarning,0830.9,5.00,000.00,026.2,025.1,000.0,034.6,027.6,4.5,0000.0,0002.05,0001.37,0001.16
2023-11-14 12:52:00,SystemResetWarning,0830.9,5.00,000.00,026.2,025.2,000.0,034.6,027.6,4.4,0000.0,0002.16,0001.37,0001.15
2023-11-14 12:53:00,SystemResetWarning,0830.9,5.00,000.00,026.2,025.2,000.0,034.6,027.7,4.4,0000.0,0002.25,0001.42,0001.16
2023-11-14 12:54:00,SystemResetWarning,0831.0,5.00,000.00,026.2,025.2,000.0,034.6,027.7,4.4,0000.0,0002.38,0001.47,0001.18
2023-11-14 12:55:00,SystemResetWarning,0831.0,5.00,000.00,026.2,025.2,000.0,034.6,027.7,4.4,0000.0,0002.41,0001.48,0001.18
2023-11-14 12:56:00,SystemResetWarning,0830.9,5.00,000.00,026.2,025.2,000.0,034.6,027.7,4.4,0000.0,0002.35,0001.48,0001.18
2023-11-14 12:57:00,SystemResetWarning,0831.0,5.01,000.00,026.2,025.2,000.0,034.6,027.7,4.4,0000.0,0002.34,0001.50,0001.17
2023-11-14 12:58:00,SystemResetWarning,0830.9,5.00,000.00,026.2,025.2,000.0,034.6,027.7,4.4,0000.0,0002.41,0001.52,0001.16
2023-11-14 12:59:00,SystemResetWarning,0830.9,5.00,000.00,026.2,025.2,000.0,034.6,027.6,4.3,0000.0,0002.32,0001.48,0001.14
